IBE331 LEMG-LEIB

Flight info

Callsign IBE331
Flight time N/A
Altitude 36000
Route RIXUR DCT UNTOS DCT ROLAS DCT TOSGA DCT RESTU DCT ALT DCT SUMMO DCT MITOS DCT BRUNO N851 RUXET
Aircraft A320/M-SDE3FGHIRWY/LB1

Departure

Time 2026-05-04 11:53
Airport Málaga-Costa del Sol Airport (LEMG)

Arrival

Time N/A
Airport Ibiza Airport (LEIB)
Time Latitude Longitude Altitude Speed Heading
2026-05-04 11:36 36.67272 -4.49024 42 ft 0 kts
2026-05-04 11:43 36.67258 -4.49027 42 ft 4 kts
2026-05-04 11:43 36.67231 -4.49030 41 ft 4 kts 357°
2026-05-04 11:44 36.67205 -4.49025 41 ft 4 kts 339°
2026-05-04 11:44 36.67185 -4.49013 40 ft 4 kts 302°
2026-05-04 11:44 36.67184 -4.48987 40 ft 4 kts 243°
2026-05-04 11:44 36.67197 -4.48959 41 ft 4 kts 223°
2026-05-04 11:45 36.67206 -4.48950 42 ft 0 kts 221°
2026-05-04 11:48 36.67196 -4.48961 41 ft 6 kts 221°
2026-05-04 11:48 36.67166 -4.49003 39 ft 7 kts 243°
2026-05-04 11:48 36.67142 -4.49059 42 ft 8 kts 217°
2026-05-04 11:48 36.67092 -4.49052 42 ft 8 kts 145°
2026-05-04 11:49 36.67023 -4.48957 42 ft 16 kts 132°
2026-05-04 11:49 36.66949 -4.48855 40 ft 16 kts 132°
2026-05-04 11:49 36.66897 -4.48783 37 ft 17 kts 131°
2026-05-04 11:49 36.66820 -4.48674 36 ft 16 kts 131°
2026-05-04 11:50 36.66748 -4.48571 34 ft 15 kts 131°
2026-05-04 11:50 36.66682 -4.48486 34 ft 10 kts 150°
2026-05-04 11:50 36.66632 -4.48499 34 ft 6 kts 219°
2026-05-04 11:50 36.66620 -4.48511 36 ft 0 kts 219°
2026-05-04 11:51 36.66620 -4.48512 36 ft 1 kts 219°
2026-05-04 11:51 36.66585 -4.48547 38 ft 7 kts 219°
2026-05-04 11:52 36.66562 -4.48572 39 ft 3 kts 219°
2026-05-04 11:52 36.66554 -4.48595 40 ft 3 kts 276°
2026-05-04 11:52 36.66563 -4.48609 40 ft 1 kts 312°
2026-05-04 11:52 36.66563 -4.48610 40 ft 0 kts 312°
2026-05-04 11:53 36.66666 -4.48752 41 ft 60 kts 311°
2026-05-04 11:53 36.67087 -4.49345 48 ft 121 kts 312°
2026-05-04 11:53 36.67747 -4.50281 182 ft 157 kts 310°
2026-05-04 11:53 36.68499 -4.51322 785 ft 168 kts 307°
2026-05-04 11:55 36.75483 -4.59729 5208 ft 253 kts 355°
2026-05-04 11:55 36.77321 -4.59821 5689 ft 275 kts 356°
2026-05-04 11:56 36.79260 -4.59938 6509 ft 281 kts 355°
2026-05-04 11:56 36.81224 -4.60083 7399 ft 284 kts 355°
2026-05-04 11:56 36.83195 -4.59708 8269 ft 295 kts 21°
2026-05-04 11:56 36.84827 -4.58101 9097 ft 308 kts 48°
2026-05-04 11:57 36.86206 -4.56066 9942 ft 308 kts 44°
2026-05-04 11:57 36.87718 -4.54216 10930 ft 301 kts 39°
2026-05-04 11:57 36.89301 -4.52496 11687 ft 306 kts 37°
2026-05-04 11:57 36.90947 -4.50738 12312 ft 316 kts 37°
2026-05-04 11:58 36.92671 -4.48893 12635 ft 338 kts 37°
2026-05-04 11:58 36.94520 -4.46922 12873 ft 361 kts 37°
2026-05-04 11:58 36.96433 -4.44802 13503 ft 368 kts 45°
2026-05-04 11:58 36.97900 -4.42282 14763 ft 353 kts 61°
2026-05-04 11:59 36.98809 -4.39395 15230 ft 367 kts 77°
2026-05-04 11:59 36.99367 -4.36180 15379 ft 388 kts 79°
2026-05-04 11:59 36.99891 -4.32817 15829 ft 398 kts 80°
2026-05-04 11:59 37.00406 -4.29393 16388 ft 404 kts 80°
2026-05-04 12:00 37.00927 -4.25970 17011 ft 407 kts 80°
2026-05-04 12:00 37.01472 -4.22468 17639 ft 412 kts 80°
2026-05-04 12:00 37.02037 -4.18936 18277 ft 416 kts 79°
2026-05-04 12:00 37.02617 -4.15373 18799 ft 420 kts 79°
2026-05-04 12:01 37.03208 -4.11770 19318 ft 424 kts 79°
2026-05-04 12:01 37.03800 -4.08141 19825 ft 428 kts 79°
2026-05-04 12:02 37.07416 -3.85626 22757 ft 451 kts 80°
2026-05-04 12:03 37.08032 -3.81757 23238 ft 455 kts 80°
2026-05-04 12:03 37.08651 -3.77851 23647 ft 459 kts 81°
2026-05-04 12:03 37.09274 -3.73909 23996 ft 463 kts 81°
2026-05-04 12:03 37.09900 -3.69924 24379 ft 467 kts 81°
2026-05-04 12:04 37.10544 -3.65971 24755 ft 471 kts 77°
2026-05-04 12:04 37.11569 -3.62055 25106 ft 475 kts 67°